TimeEST,TemperatureF,Dew PointF,Humidity,Sea Level PressureIn,VisibilityMPH,Wind Direction,Wind SpeedMPH,Gust SpeedMPH,PrecipitationIn,Events,Conditions,WindDirDegrees,DateUTC
12:54 AM,32.0,25.0,75,30.48,10.0,WNW,4.6,-,N/A,,Clear,290,2012-11-17 05:54:00
1:54 AM,35.1,26.1,70,30.49,10.0,NW,4.6,-,N/A,,Clear,320,2012-11-17 06:54:00
2:54 AM,34.0,26.1,73,30.50,10.0,NNW,3.5,-,N/A,,Clear,330,2012-11-17 07:54:00
3:54 AM,32.0,26.1,79,30.51,10.0,Calm,Calm,-,N/A,,Clear,0,2012-11-17 08:54:00
4:54 AM,30.9,26.1,82,30.53,10.0,NNW,3.5,-,N/A,,Clear,330,2012-11-17 09:54:00
5:54 AM,28.0,26.1,92,30.56,10.0,Calm,Calm,-,N/A,,Clear,0,2012-11-17 10:54:00
6:54 AM,30.9,27.0,85,30.58,10.0,NNE,3.5,-,N/A,,Clear,20,2012-11-17 11:54:00
7:54 AM,32.0,27.0,82,30.61,10.0,Calm,Calm,-,N/A,,Clear,0,2012-11-17 12:54:00
8:54 AM,37.0,28.9,73,30.63,10.0,Calm,Calm,-,N/A,,Clear,0,2012-11-17 13:54:00
9:54 AM,43.0,28.9,58,30.63,10.0,North,4.6,-,N/A,,Clear,10,2012-11-17 14:54:00
10:54 AM,48.0,28.9,48,30.63,10.0,NE,8.1,-,N/A,,Clear,40,2012-11-17 15:54:00
11:54 AM,48.9,28.9,46,30.61,10.0,North,8.1,-,N/A,,Clear,10,2012-11-17 16:54:00
12:54 PM,51.1,28.0,41,30.60,10.0,Variable,6.9,-,N/A,,Clear,0,2012-11-17 17:54:00
1:54 PM,52.0,30.0,43,30.58,10.0,North,9.2,-,N/A,,Clear,10,2012-11-17 18:54:00
2:54 PM,53.1,28.9,40,30.58,10.0,NNE,4.6,-,N/A,,Clear,20,2012-11-17 19:54:00
3:54 PM,52.0,27.0,38,30.59,10.0,East,3.5,-,N/A,,Clear,80,2012-11-17 20:54:00
4:54 PM,50.0,27.0,41,30.60,10.0,Calm,Calm,-,N/A,,Clear,0,2012-11-17 21:54:00
5:54 PM,44.1,28.9,55,30.61,10.0,NNW,3.5,-,N/A,,Clear,330,2012-11-17 22:54:00
6:54 PM,44.1,28.9,55,30.62,10.0,Calm,Calm,-,N/A,,Clear,0,2012-11-17 23:54:00
7:54 PM,37.0,28.9,73,30.60,10.0,North,4.6,-,N/A,,Clear,360,2012-11-18 00:54:00
8:54 PM,37.9,28.9,70,30.62,10.0,Calm,Calm,-,N/A,,Clear,0,2012-11-18 01:54:00
9:54 PM,36.0,28.9,76,30.63,10.0,Calm,Calm,-,N/A,,Clear,0,2012-11-18 02:54:00
10:54 PM,34.0,28.9,82,30.63,10.0,Calm,Calm,-,N/A,,Clear,0,2012-11-18 03:54:00
11:54 PM,34.0,30.0,85,30.64,10.0,Calm,Calm,-,N/A,,Clear,0,2012-11-18 04:54:00